Weather History for Gillette, WY

Change the Weather History Date:

Wednesday, May 1, 2013

  Actual Average Record
Temperature  
Mean Temperature 32 °F 48 °F  
Max Temperature 44 °F 61 °F 89 °F (1981)
Min Temperature 20 °F 35 °F 16 °F (1967)
Degree Days  
Heating Degree Days 33 17  
Month to date heating degree days 33 17  
Since 1 July heating degree days 6995 7033  
Cooling Degree Days 0 0  
Month to date cooling degree days 0 0  
Year to date cooling degree days 0 0  
Moisture  
Dew Point 18 °F    
Average Humidity 60    
Maximum Humidity 91    
Minimum Humidity 28    
Precipitation  
Precipitation 0.00 in 0.07 in 0.67 in (1967)
Month to date precipitation 0.00 0.07  
Year to date precipitation 3.12 3.28  
Sea Level Pressure  
Sea Level Pressure 30.50 in    
Wind  
Wind Speed 6 mph (North)    
Max Wind Speed 15 mph    
Max Gust Speed 20 mph    
Visibility 10 miles    
Events      
T = Trace of Precipitation, MM = Missing Value Source: NWS Daily Summary

Daily Weather History Graph

Daily Weather History Graph

Search for Another Location

Airport:

Trip Planner

Search our weather history database for the weather conditions in past years. The results will help you decide how hot, cold, wet, or windy it might be!

Date:

Astronomy

May. 01, 2013 Rise Set
Actual Time 5:52 AM MDT 8:06 PM MDT
Civil Twilight 5:20 AM MDT 8:38 PM MDT
Nautical Twilight 4:41 AM MDT 9:18 PM MDT
Astronomical Twilight 3:57 AM MDT 10:02 PM MDT
Moon 1:18 AM MDT 11:34 AM MDT
Length of Visible Light 15h 18m
Length of Day
14h 14m
Waning Gibbous, 58% of the Moon is Illuminated
May 1
Waning Gibbous
May 2
Last Quarter
May 9
New
May 17
First Quarter
May 24
Full

Hourly Weather History & Observations

Time (MDT) Temp. Windchill Dew Point Humidity Pressure Visibility Wind Dir Wind Speed Gust Speed Precip Events Conditions
12:53 AM 26.1 °F 18.4 °F 21.0 °F 81% 30.27 in 10.0 mi North 6.9 mph - N/A   Mostly Cloudy
1:53 AM 21.9 °F 14.5 °F 18.0 °F 85% 30.30 in 10.0 mi NNW 5.8 mph - N/A   Clear
2:53 AM 19.9 °F - 18.0 °F 92% 30.30 in 10.0 mi Calm Calm - N/A   Clear
3:53 AM 21.9 °F 14.5 °F 18.0 °F 85% 30.31 in 10.0 mi NW 5.8 mph - N/A   Partly Cloudy
4:53 AM 21.0 °F - 18.0 °F 88% 30.35 in 10.0 mi Calm Calm - N/A   Scattered Clouds
5:53 AM 24.1 °F - 19.9 °F 84% 30.38 in 10.0 mi Calm Calm - N/A   Overcast
6:53 AM 26.1 °F - 21.0 °F 81% 30.44 in 10.0 mi Calm Calm - N/A   Overcast
7:53 AM 28.0 °F 21.7 °F 19.9 °F 72% 30.48 in 10.0 mi NNE 5.8 mph - N/A   Overcast
8:53 AM 30.0 °F 23.2 °F 23.0 °F 75% 30.48 in 10.0 mi NNE 6.9 mph - N/A   Overcast
9:53 AM 32.0 °F 24.8 °F 21.9 °F 66% 30.50 in 10.0 mi North 8.1 mph - N/A   Mostly Cloudy
10:49 AM 33.8 °F 26.4 °F 21.2 °F 60% 30.43 in 10.0 mi North 9.2 mph 17.3 mph N/A   Overcast
10:53 AM 35.1 °F 26.9 °F 21.9 °F 59% 30.51 in 10.0 mi North 11.5 mph - N/A   Overcast
11:53 AM 37.0 °F 31.6 °F 19.9 °F 50% 30.53 in 10.0 mi NNE 6.9 mph 16.1 mph N/A   Partly Cloudy
12:53 PM 37.0 °F 28.5 °F 21.0 °F 52% 30.53 in 10.0 mi NNE 13.8 mph - N/A   Mostly Cloudy
1:53 PM 39.9 °F 34.5 °F 21.0 °F 47% 30.54 in 10.0 mi NNE 8.1 mph - N/A   Partly Cloudy
2:53 PM 39.0 °F 34.0 °F 17.1 °F 41% 30.56 in 10.0 mi Variable 6.9 mph - N/A   Partly Cloudy
3:53 PM 44.1 °F 37.1 °F 16.0 °F 32% 30.54 in 10.0 mi NE 15.0 mph - N/A   Scattered Clouds
4:53 PM 43.0 °F - 12.9 °F 30% 30.55 in 10.0 mi Calm Calm - N/A   Clear
5:53 PM 41.0 °F 36.4 °F 12.0 °F 31% 30.57 in 10.0 mi North 6.9 mph - N/A   Clear
6:53 PM 41.0 °F 38.0 °F 10.0 °F 28% 30.57 in 10.0 mi NE 4.6 mph - N/A   Partly Cloudy
7:53 PM 37.0 °F - 15.1 °F 41% 30.60 in 10.0 mi Calm Calm - N/A   Partly Cloudy
8:53 PM 28.0 °F 24.2 °F 18.0 °F 66% 30.65 in 10.0 mi SW 3.5 mph - N/A   Partly Cloudy
9:53 PM 24.1 °F 19.7 °F 18.0 °F 77% 30.68 in 10.0 mi SSW 3.5 mph - N/A   Clear
10:53 PM 25.0 °F 18.1 °F 16.0 °F 69% 30.67 in 10.0 mi SSW 5.8 mph - N/A   Clear
11:53 PM 25.0 °F 20.7 °F 17.1 °F 72% 30.66 in 10.0 mi South 3.5 mph - N/A   Clear